Regional Weather Roundup
Issued by NWS

Home | Current Version | Previous Version | Graphics & Text | Print | Product List | Glossary On
Versions: 1 2 3 4 5 6 7 8 9 10 11 12 13 14 15 16 17 18 19 20 21 22 23 24 25 26 27 28 29 30 31 32 33 34 35 36 37 38 39 40 41 42 43 44 45 46 47 48 49 50
000
ASUS43 KLOT 262112
RWRIL

ILLINOIS REGIONAL WEATHER ROUNDUP
NATIONAL WEATHER SERVICE CHICAGO/ROMEOVILLE IL
400 PM CDT THU MAR 26 2015

NOTE: "FAIR" INDICATES FEW OR NO CLOUDS BELOW 12,000 FEET WITH NO
SIGNIFICANT WEATHER AND/OR OBSTRUCTIONS TO VISIBILITY.

* THESE STATIONS ARE NOT UNDER NWS QUALITY CONTROL. THEY ALSO MAY NOT
  REPORT WEATHER SUCH AS PRECIPITATION OR FOG.

ILZ001-002-007-009-015-016-024-262200-
NORTHWEST ILLINOIS

CITY           SKY/WX    TMP DP  RH WIND       PRES   REMARKS
MOLINE         SUNNY     47  22  37 W17G31    30.01F
STERLING*      CLOUDY    46  27  46 NW12      30.00S
SAVANNA*       MOSUNNY   45  21  38 NW15      30.01R
$$

ILZ003-004-008-010-011-017-018-262200-
NORTH CENTRAL ILLINOIS

CITY           SKY/WX    TMP DP  RH WIND       PRES   REMARKS
ROCKFORD       CLOUDY    39  21  48 NW14      30.01R WCI  31
FREEPORT*      CLOUDY    40  23  51 NW16G23   30.02R
ROCHELLE*      CLOUDY    38  25  59 N10G20    30.01R WCI  31
DE KALB*       CLOUDY    37  24  60 NW15      30.00R WCI  28
PERU*          PTSUNNY   43  25  48 NW10G18   30.01R
$$

ILZ005-006-012>014-019>023-262200-
NORTHEAST ILLINOIS

CITY           SKY/WX    TMP DP  RH WIND       PRES   REMARKS
CHICAGO-OHARE  CLOUDY    40  24  53 NW17      29.96R
CHICAGO-MIDWAY PTSUNNY   43  22  43 NW14      29.97R
AURORA         CLOUDY    40  24  53 NW15      29.99R
LANSING*       PTSUNNY   43  21  41 NW12G17   29.96R
JOLIET*        CLOUDY    43  25  49 W12G17    29.99R
WAUKEGAN       CLOUDY    37  22  54 NW10      29.96R WCI  30
DUPAGE AIRPORT CLOUDY    39  23  52 NW16G23   29.97R WCI  30
KANKAKEE*      PTSUNNY   45  31  58 W14G25    29.97R
WHEELING       CLOUDY    39  23  52 NW15G21   29.98R WCI  31
MORRIS*        PTSUNNY   42  26  53 N10G17    29.99R
ROMEOVILLE*    CLOUDY    41  22  46 NW14      29.98R
NORTHERLY ISL    N/A     38  27  65 E6          N/A  WCI  33
$$

LMZ740>746-262200-
SOUTHERN LAKE MICHIGAN

STATION/POSITION SKY/WX   TEMP    WIND        PRES    VSBY  WAVE
                          AIR SEA DIR/SP/G                  HT/PER
                          (F)     (DEG/KT/KT) (MB)    (MI)  (FT/S)
HARRISON CRIB              36      40/  7/  8   N/A
BURNHAM HARBOR             37      70/  8       N/A
CALUMET HARBOR             37      60/  6/  9 1012.9F
BURNS HARBOR               37      40/  5/  6 1014.6F
MICHIGAN CITY              36     320/  4/  4   N/A
$$

ILZ025>027-034>036-040-047-049-050-058-095>099-262200-
WEST-CENTRAL ILLINOIS

CITY           SKY/WX    TMP DP  RH WIND       PRES   REMARKS
QUINCY         SUNNY     48  25  40 N15       30.05R
GALESBURG*     MOSUNNY   47  24  40 NW16G24   30.02S
MACOMB*        MOSUNNY   48  25  40 NW18G26   30.05S
JACKSONVILLE*  SUNNY     50  29  45 NW14G24   30.03S
PITTSFIELD*    SUNNY     49  28  45 NW15      30.05S
$$

ILZ028>032-037-038-041>044-048-051>054-059>061-262200-
CENTRAL ILLINOIS

CITY           SKY/WX    TMP DP  RH WIND       PRES   REMARKS
PONTIAC        MOSUNNY   45  31  56 NW16G22   30.00R
BLOOMINGTON    MOSUNNY   46  28  49 NW17      30.00R
DECATUR        MOSUNNY   48  29  47 NW17      30.00S
PEORIA         SUNNY     49  23  36 NW13G22   30.01S
LACON*         PTSUNNY   47  25  42 NW15      30.01R
LINCOLN*       SUNNY     49  27  41 NW12G17   30.00S
SPRINGFIELD    SUNNY     50  27  40 NW20G25   30.02S
TAYLORVILLE    SUNNY     46  32  57 NW15      30.01F
$$

ILZ033-039-045-046-055>057-062-063-262200-
EAST-CENTRAL ILLINOIS

CITY           SKY/WX    TMP DP  RH WIND       PRES   REMARKS
CHAMPAIGN      PTSUNNY   47  31  53 NW20      29.98R
DANVILLE*      CLOUDY    44  33  63 NW12G18   29.95R
RANTOUL*       PTSUNNY   47  31  54 NW15G26   29.98R
MATTOON        PTSUNNY   47  34  60 NW18      29.98S
PARIS*         CLOUDY    46  36  69 NW13G20   29.99S
$$

ILZ079-100>102-262200-
SOUTHWEST ILLINOIS

CITY           SKY/WX    TMP DP  RH WIND       PRES   REMARKS
ALTON          SUNNY     48  25  40 NW14      30.05R
BELLEVILLE     MOSUNNY   50  31  48 NW8       30.02F
CAHOKIA*       SUNNY     50  30  46 NW18      30.05S
SPARTA*        PTSUNNY   45  32  59 N13       30.05R
$$

ILZ064>066-069>071-074>076-080>082-084>086-088>090-092>094-262200-
SOUTH-CENTRAL ILLINOIS

CITY           SKY/WX    TMP DP  RH WIND       PRES   REMARKS
CARBONDALE     CLOUDY    45  34  65 NW12      30.04S
CAIRO*         CLOUDY    45  38  77 N10G16    30.02S
EFFINGHAM*     PTSUNNY   46  31  54 NW12      30.01F
MARION         CLOUDY    45  36  70 N17       30.04S
MT. VERNON     CLOUDY    45  30  57 N7        30.03S
CENTRALIA*     PTSUNNY   45  32  61 NW10      30.02S
SALEM*         PTSUNNY   47  35  62 NW9G16    30.02F
METROPOLIS*    CLOUDY    43  38  82 N10       29.99F
$$

ILZ067-068-072-073-078-083-087-091-262200-
SOUTHEAST ILLINOIS

CITY           SKY/WX    TMP DP  RH WIND       PRES   REMARKS
LAWRENCEVILLE  CLOUDY    44  33  65 NW12      30.00S
FLORA*         CLOUDY    45  34  66 NW8       30.01S
FAIRFIELD*     CLOUDY    45  34  66 NW8       30.01S
HARRISBURG*    CLOUDY    43  34  72 N10       30.03F
ROBINSON*      CLOUDY    44  33  66 NW10G20   30.01S
CARMI*         CLOUDY   N/A N/A N/A NW13      30.01F
$$

ABBREVIATIONS USED IN REMARKS
   TC - TEMPERATURE IN CELSIUS
  WCI - WIND CHILL INDEX
   HX - HEAT INDEX
  VSB - VISIBILITY
$$



USA.gov is the U.S. government's official web portal to all federal, state and local government web resources and services.